User: anonymous   Login
Location: Vancouver
(49.2500°N, 123.1330°W)
Time: 20:11:55
(UTC-07:00)
Language:

Cosmos 1864 Rocket - Orbit

View from above orbital plane
View from above orbital plane
View from above satellite
View from above satellite

Ground track
Ground track

The orbit data is extracted from the following two-line orbital elements,

1 18161U 87057B   14303.44878630  .00000037  00000-0  21153-4 0  5953
2 18161 082.9357 066.8179 0032567 121.6041 303.3069 13.76861749352015
Epoch (UTC): 30 October 2014 10:46:15
Eccentricity: 0.0032567
inclination: 82.9357°
perigee height: 951 km
apogee height: 999 km
right ascension of ascending node: 66.8179°
argument of perigee: 121.6041°
revolutions per day: 13.76861749
mean anomaly at epoch: 303.3069°
orbit number at epoch: 35201

The dashed part of the orbit path shows where the satellite is in the earth's shadow,  

DLR